Time,TemperatureF,DewpointF,PressureIn,WindDirection,WindDirectionDegrees,WindSpeedMPH,WindSpeedGustMPH,Humidity,HourlyPrecipIn,Conditions,Clouds,dailyrainin,SoftwareType,DateUTC
2013-05-28 00:01:00,59.8,32.8,29.87,ESE,115,0.0,0.0,36,0.00,-RA,OVC,0.00,WeatherDisplay:10.37,2013-05-28 06:01:00,
2013-05-28 00:06:00,59.2,32.9,29.87,ESE,115,0.0,0.0,37,0.00,-RA,OVC,0.00,WeatherDisplay:10.37,2013-05-28 06:06:00,
2013-05-28 00:11:00,58.6,33.7,29.87,ESE,115,0.0,0.0,39,0.00,-RA,OVC,0.00,WeatherDisplay:10.37,2013-05-28 06:11:00,
2013-05-28 00:16:00,58.2,34.0,29.87,ESE,115,0.0,0.0,40,0.00,-RA,OVC,0.00,WeatherDisplay:10.37,2013-05-28 06:16:00,
2013-05-28 00:21:00,57.8,34.2,29.87,ESE,115,0.0,0.0,41,0.00,-RA,OVC,0.00,WeatherDisplay:10.37,2013-05-28 06:21:00,
2013-05-28 00:26:00,57.6,34.7,29.87,ESE,115,0.0,0.0,42,0.00,-RA,OVC,0.00,WeatherDisplay:10.37,2013-05-28 06:26:00,
2013-05-28 00:31:00,57.4,34.5,29.87,ESE,115,0.0,0.0,42,0.00,-RA,OVC,0.00,WeatherDisplay:10.37,2013-05-28 06:31:00,
2013-05-28 00:36:00,57.2,34.9,29.87,ESE,115,0.0,0.0,43,0.00,-RA,OVC,0.00,WeatherDisplay:10.37,2013-05-28 06:36:00,
2013-05-28 00:41:00,56.9,35.2,29.87,ESE,115,0.0,0.0,44,0.00,-RA,OVC,0.00,WeatherDisplay:10.37,2013-05-28 06:41:00,
2013-05-28 00:46:00,56.4,35.3,29.87,ESE,115,0.0,0.0,45,0.00,-RA,OVC,0.00,WeatherDisplay:10.37,2013-05-28 06:46:00,
2013-05-28 00:51:00,56.0,35.5,29.87,ESE,115,0.0,0.0,46,0.00,-RA,OVC,0.00,WeatherDisplay:10.37,2013-05-28 06:51:00,
2013-05-28 00:56:00,55.6,35.7,29.87,ESE,113,3.5,3.5,47,0.00,-RA,OVC,0.00,WeatherDisplay:10.37,2013-05-28 06:56:00,
2013-05-28 01:01:00,55.4,36.0,29.87,ESE,113,0.0,0.0,48,0.00,-RA,OVC,0.00,WeatherDisplay:10.37,2013-05-28 07:01:00,
2013-05-28 01:06:00,55.3,35.9,29.87,ESE,113,0.0,0.0,48,0.00,-RA,OVC,0.00,WeatherDisplay:10.37,2013-05-28 07:06:00,
2013-05-28 01:11:00,55.2,35.3,29.87,ESE,113,0.0,0.0,47,0.00,-RA,OVC,0.00,WeatherDisplay:10.37,2013-05-28 07:11:00,
2013-05-28 01:16:00,55.1,35.7,29.87,ESE,113,0.0,0.0,48,0.00,-RA,OVC,0.00,WeatherDisplay:10.37,2013-05-28 07:16:00,
2013-05-28 01:21:00,54.9,36.1,29.87,ESE,113,2.3,2.3,49,0.00,-RA,OVC,0.00,WeatherDisplay:10.37,2013-05-28 07:21:00,
2013-05-28 01:26:00,54.8,33.8,29.87,ESE,108,3.5,3.5,45,0.00,-RA,OVC,0.00,WeatherDisplay:10.37,2013-05-28 07:26:00,
2013-05-28 01:31:00,55.2,32.5,29.87,ESE,102,3.5,3.5,42,0.00,-RA,OVC,0.00,WeatherDisplay:10.37,2013-05-28 07:31:00,
2013-05-28 01:36:00,55.5,32.2,29.87,East,89,4.6,4.6,41,0.00,-RA,OVC,0.00,WeatherDisplay:10.37,2013-05-28 07:36:00,
2013-05-28 01:41:00,56.0,31.4,29.87,East,86,3.5,3.5,39,0.00,-RA,OVC,0.00,WeatherDisplay:10.37,2013-05-28 07:41:00,
2013-05-28 01:46:00,56.3,31.0,29.87,East,82,3.5,3.5,38,0.00,-RA,OVC,0.00,WeatherDisplay:10.37,2013-05-28 07:46:00,
2013-05-28 01:51:00,56.5,30.5,29.87,East,80,3.5,3.5,37,0.00,-RA,OVC,0.00,WeatherDisplay:10.37,2013-05-28 07:51:00,
2013-05-28 01:56:00,56.8,30.1,29.87,ENE,77,0.0,0.6,36,0.00,-RA,OVC,0.00,WeatherDisplay:10.37,2013-05-28 07:56:00,
2013-05-28 02:01:00,56.8,30.1,29.87,ENE,77,3.5,3.5,36,0.00,-RA,OVC,0.00,WeatherDisplay:10.37,2013-05-28 08:01:00,
2013-05-28 02:06:00,56.8,30.8,29.87,ENE,74,0.0,0.5,37,0.00,-RA,OVC,0.00,WeatherDisplay:10.37,2013-05-28 08:06:00,
2013-05-28 02:11:00,56.8,30.1,29.87,ENE,74,2.3,2.3,36,0.00,-RA,OVC,0.00,WeatherDisplay:10.37,2013-05-28 08:11:00,
2013-05-28 02:16:00,56.7,30.0,29.87,ENE,74,1.1,1.1,36,0.00,-RA,OVC,0.00,WeatherDisplay:10.37,2013-05-28 08:16:00,
2013-05-28 02:21:00,56.6,30.6,29.87,ENE,74,2.3,2.3,37,0.00,-RA,OVC,0.00,WeatherDisplay:10.37,2013-05-28 08:21:00,
2013-05-28 02:26:00,56.6,29.9,29.87,ENE,74,0.0,0.0,36,0.00,-RA,OVC,0.00,WeatherDisplay:10.37,2013-05-28 08:26:00,
2013-05-28 02:31:00,56.5,30.5,29.87,ENE,74,0.0,0.0,37,0.00,-RA,OVC,0.00,WeatherDisplay:10.37,2013-05-28 08:31:00,
2013-05-28 02:36:00,56.3,31.0,29.87,ENE,74,0.0,0.0,38,0.00,-RA,OVC,0.00,WeatherDisplay:10.37,2013-05-28 08:36:00,
2013-05-28 02:41:00,56.1,30.2,29.87,ENE,74,0.0,0.0,37,0.00,-RA,OVC,0.00,WeatherDisplay:10.37,2013-05-28 08:41:00,
2013-05-28 02:46:00,55.7,30.5,29.87,ENE,74,0.0,0.0,38,0.00,-RA,OVC,0.00,WeatherDisplay:10.37,2013-05-28 08:46:00,
2013-05-28 02:51:00,55.3,31.4,29.87,ENE,74,0.0,0.0,40,0.00,-RA,OVC,0.00,WeatherDisplay:10.37,2013-05-28 08:51:00,
2013-05-28 02:56:00,54.9,31.6,29.87,ENE,74,1.1,0.0,41,0.00,-RA,OVC,0.00,WeatherDisplay:10.37,2013-05-28 08:56:00,
2013-05-28 03:01:00,54.5,31.9,29.87,ENE,74,0.0,0.0,42,0.00,-RA,OVC,0.00,WeatherDisplay:10.37,2013-05-28 09:01:00,
2013-05-28 03:06:00,54.1,32.6,29.87,ENE,74,1.1,0.0,44,0.00,-RA,OVC,0.00,WeatherDisplay:10.37,2013-05-28 09:06:00,
2013-05-28 03:11:00,53.7,32.3,29.87,ENE,74,2.3,2.3,44,0.00,-RA,OVC,0.00,WeatherDisplay:10.37,2013-05-28 09:11:00,
2013-05-28 03:16:00,53.4,32.0,29.87,ENE,74,1.1,0.0,44,0.00,-RA,OVC,0.00,WeatherDisplay:10.37,2013-05-28 09:16:00,
2013-05-28 03:21:00,53.1,31.7,29.87,ENE,74,0.0,0.0,44,0.00,-RA,OVC,0.00,WeatherDisplay:10.37,2013-05-28 09:21:00,
2013-05-28 03:26:00,52.7,31.9,29.87,ENE,74,0.0,0.0,45,0.00,-RA,OVC,0.00,WeatherDisplay:10.37,2013-05-28 09:26:00,
2013-05-28 03:31:00,52.3,32.1,29.87,ENE,74,1.0,0.0,46,0.00,-RA,OVC,0.00,WeatherDisplay:10.37,2013-05-28 09:31:00,
2013-05-28 03:36:00,51.9,32.8,29.87,ENE,74,0.0,0.0,48,0.00,-RA,OVC,0.00,WeatherDisplay:10.37,2013-05-28 09:36:00,
2013-05-28 03:41:00,51.6,32.5,29.87,ENE,74,0.0,0.0,48,0.00,-RA,OVC,0.00,WeatherDisplay:10.37,2013-05-28 09:41:00,
2013-05-28 03:46:00,51.3,33.3,29.87,ENE,74,0.0,0.0,50,0.00,-RA,OVC,0.00,WeatherDisplay:10.37,2013-05-28 09:46:00,
2013-05-28 03:51:00,50.9,33.4,29.87,ENE,74,0.0,0.0,51,0.00,-RA,OVC,0.00,WeatherDisplay:10.37,2013-05-28 09:51:00,
2013-05-28 03:56:00,50.6,33.6,29.87,ENE,74,0.0,0.0,52,0.00,-RA,OVC,0.00,WeatherDisplay:10.37,2013-05-28 09:56:00,
2013-05-28 04:01:00,50.3,33.3,29.87,ENE,74,0.0,0.0,52,0.00,-RA,OVC,0.00,WeatherDisplay:10.37,2013-05-28 10:01:00,
2013-05-28 04:06:00,50.0,33.1,29.87,East,79,3.5,3.5,52,0.00,-RA,OVC,0.00,WeatherDisplay:10.37,2013-05-28 10:06:00,
2013-05-28 04:11:00,50.0,32.1,29.87,East,80,0.0,0.0,50,0.00,-RA,OVC,0.00,WeatherDisplay:10.37,2013-05-28 10:11:00,
2013-05-28 04:16:00,49.9,32.0,29.87,East,80,0.0,0.0,50,0.00,-RA,OVC,0.00,WeatherDisplay:10.37,2013-05-28 10:16:00,
2013-05-28 04:21:00,49.9,33.0,29.87,East,80,0.0,0.0,52,0.00,-RA,OVC,0.00,WeatherDisplay:10.37,2013-05-28 10:21:00,
2013-05-28 04:26:00,49.7,32.8,29.87,East,80,0.0,0.0,52,0.00,-RA,OVC,0.00,WeatherDisplay:10.37,2013-05-28 10:26:00,
2013-05-28 04:31:00,49.5,33.1,29.87,East,80,0.0,0.0,53,0.00,-RA,OVC,0.00,WeatherDisplay:10.37,2013-05-28 10:31:00,
2013-05-28 04:36:00,49.2,32.8,29.87,East,80,0.0,0.0,53,0.00,-RA,OVC,0.00,WeatherDisplay:10.37,2013-05-28 10:36:00,
2013-05-28 04:41:00,49.2,31.3,29.87,East,80,2.3,2.3,50,0.00,-RA,OVC,0.00,WeatherDisplay:10.37,2013-05-28 10:41:00,
2013-05-28 04:46:00,50.3,32.4,29.87,East,86,3.5,3.5,50,0.00,-RA,OVC,0.00,WeatherDisplay:10.37,2013-05-28 10:46:00,
2013-05-28 04:51:00,52.1,33.5,29.87,South,187,6.0,6.0,49,0.00,-RA,OVC,0.00,WeatherDisplay:10.37,2013-05-28 10:51:00,
2013-05-28 04:56:00,53.5,34.3,29.87,South,182,3.5,3.5,48,0.00,-RA,OVC,0.00,WeatherDisplay:10.37,2013-05-28 10:56:00,
2013-05-28 05:01:00,54.0,34.7,29.87,South,184,3.5,3.5,48,0.00,-RA,OVC,0.00,WeatherDisplay:10.37,2013-05-28 11:01:00,
2013-05-28 05:06:00,53.9,35.2,29.87,South,184,1.1,1.1,49,0.00,-RA,OVC,0.00,WeatherDisplay:10.37,2013-05-28 11:06:00,
2013-05-28 05:11:00,53.8,36.1,29.87,South,185,3.5,3.5,51,0.00,-RA,OVC,0.00,WeatherDisplay:10.37,2013-05-28 11:11:00,
2013-05-28 05:16:00,53.7,36.5,29.87,South,188,1.1,1.1,52,0.00,-RA,OVC,0.00,WeatherDisplay:10.37,2013-05-28 11:16:00,
2013-05-28 05:21:00,53.7,37.4,29.87,South,183,4.6,4.6,54,0.00,-RA,OVC,0.00,WeatherDisplay:10.37,2013-05-28 11:21:00,
2013-05-28 05:26:00,53.6,38.3,29.87,SSW,202,4.6,4.6,56,0.00,-RA,OVC,0.00,WeatherDisplay:10.37,2013-05-28 11:26:00,
2013-05-28 05:31:00,53.4,38.5,29.87,South,184,3.5,3.5,57,0.00,-RA,OVC,0.00,WeatherDisplay:10.37,2013-05-28 11:31:00,
2013-05-28 05:36:00,53.2,39.2,29.87,SW,215,3.5,3.5,59,0.00,-RA,OVC,0.00,WeatherDisplay:10.37,2013-05-28 11:36:00,
2013-05-28 05:41:00,53.1,39.1,29.87,SSW,200,3.5,3.5,59,0.00,-RA,OVC,0.00,WeatherDisplay:10.37,2013-05-28 11:41:00,
2013-05-28 05:46:00,53.0,39.5,29.87,South,181,3.5,3.5,60,0.00,-RA,OVC,0.00,WeatherDisplay:10.37,2013-05-28 11:46:00,
2013-05-28 05:51:00,52.8,39.3,29.87,SE,125,6.9,6.9,60,0.00,-RA,OVC,0.00,WeatherDisplay:10.37,2013-05-28 11:51:00,
2013-05-28 05:56:00,52.8,38.9,29.87,SE,140,2.3,2.3,59,0.00,-RA,OVC,0.00,WeatherDisplay:10.37,2013-05-28 11:56:00,
2013-05-28 06:01:00,52.8,38.9,29.87,South,181,2.3,2.3,59,0.00,-RA,OVC,0.00,WeatherDisplay:10.37,2013-05-28 12:01:00,
2013-05-28 06:06:00,52.8,38.9,29.87,SSW,192,2.3,2.3,59,0.00,-RA,OVC,0.00,WeatherDisplay:10.37,2013-05-28 12:06:00,
2013-05-28 06:11:00,52.7,38.8,29.87,South,191,0.0,0.0,59,0.00,-RA,OVC,0.00,WeatherDisplay:10.37,2013-05-28 12:11:00,
2013-05-28 06:17:00,52.7,39.2,29.87,South,191,0.0,0.0,60,0.00,-RA,OVC,0.00,WeatherDisplay:10.37,2013-05-28 12:17:00,
2013-05-28 06:22:00,52.7,39.2,29.87,South,189,2.3,2.3,60,0.00,-RA,OVC,0.00,WeatherDisplay:10.37,2013-05-28 12:22:00,
2013-05-28 06:27:00,52.8,39.3,29.87,South,189,0.0,0.0,60,0.00,-RA,OVC,0.00,WeatherDisplay:10.37,2013-05-28 12:27:00,
2013-05-28 06:32:00,52.9,39.4,29.87,South,189,3.5,3.5,60,0.00,-RA,OVC,0.00,WeatherDisplay:10.37,2013-05-28 12:32:00,
2013-05-28 06:37:00,53.1,39.6,29.87,South,189,2.3,2.3,60,0.00,-RA,OVC,0.00,WeatherDisplay:10.37,2013-05-28 12:37:00,
2013-05-28 06:42:00,53.4,39.9,29.87,South,189,1.1,1.1,60,0.00,-RA,OVC,0.00,WeatherDisplay:10.37,2013-05-28 12:42:00,
2013-05-28 06:47:00,53.7,40.1,29.87,South,189,2.3,2.3,60,0.00,-RA,OVC,0.00,WeatherDisplay:10.37,2013-05-28 12:47:00,
2013-05-28 06:52:00,54.2,40.6,29.87,South,189,2.3,0.0,60,0.00,-RA,OVC,0.00,WeatherDisplay:10.37,2013-05-28 12:52:00,
2013-05-28 06:57:00,54.8,40.7,29.87,South,189,0.0,0.0,59,0.00,-RA,OVC,0.00,WeatherDisplay:10.37,2013-05-28 12:57:00,
2013-05-28 07:02:00,55.4,41.3,29.87,South,190,2.3,2.3,59,0.00,-RA,OVC,0.00,WeatherDisplay:10.37,2013-05-28 13:02:00,
2013-05-28 07:07:00,55.8,41.2,29.87,South,190,1.1,0.0,58,0.00,-RA,OVC,0.00,WeatherDisplay:10.37,2013-05-28 13:07:00,
2013-05-28 07:12:00,56.1,41.1,29.87,South,189,3.5,3.5,57,0.00,-RA,OVC,0.00,WeatherDisplay:10.37,2013-05-28 13:12:00,
2013-05-28 07:17:00,56.1,41.1,29.87,South,185,2.3,2.3,57,0.00,-RA,OVC,0.00,WeatherDisplay:10.37,2013-05-28 13:17:00,
2013-05-28 07:22:00,56.1,41.1,29.87,SSW,194,3.5,3.5,57,0.00,-RA,OVC,0.00,WeatherDisplay:10.37,2013-05-28 13:22:00,
2013-05-28 07:27:00,56.2,41.2,29.87,SSW,201,1.1,0.0,57,0.00,-RA,OVC,0.00,WeatherDisplay:10.37,2013-05-28 13:27:00,
2013-05-28 07:32:00,56.4,41.3,29.87,SSW,201,3.5,3.5,57,0.00,-RA,OVC,0.00,WeatherDisplay:10.37,2013-05-28 13:32:00,
2013-05-28 07:37:00,56.7,41.2,29.89,SSW,210,3.5,3.5,56,0.00,-RA,OVC,0.00,WeatherDisplay:10.37,2013-05-28 13:37:00,
2013-05-28 07:42:00,56.5,41.4,29.89,SW,217,1.1,1.1,57,0.00,-RA,OVC,0.00,WeatherDisplay:10.37,2013-05-28 13:42:00,
2013-05-28 07:47:00,56.7,42.1,29.89,SW,219,1.1,1.1,58,0.00,-RA,OVC,0.00,WeatherDisplay:10.37,2013-05-28 13:47:00,
2013-05-28 07:52:00,57.0,41.9,29.89,SW,217,1.1,1.1,57,0.00,-RA,OVC,0.00,WeatherDisplay:10.37,2013-05-28 13:52:00,
2013-05-28 07:57:00,57.3,42.2,29.89,SW,219,3.5,3.5,57,0.00,-RA,OVC,0.00,WeatherDisplay:10.37,2013-05-28 13:57:00,
2013-05-28 08:02:00,57.5,41.9,29.89,SW,219,2.3,2.3,56,0.00,-RA,OVC,0.00,WeatherDisplay:10.37,2013-05-28 14:02:00,
2013-05-28 08:07:00,57.8,42.2,29.89,SW,220,3.5,3.5,56,0.00,-RA,OVC,0.00,WeatherDisplay:10.37,2013-05-28 14:07:00,
2013-05-28 08:12:00,58.1,42.9,29.89,SW,217,3.5,3.5,57,0.00,-RA,OVC,0.00,WeatherDisplay:10.37,2013-05-28 14:12:00,
2013-05-28 08:17:00,58.2,43.0,29.89,SW,217,0.0,0.0,57,0.00,-RA,OVC,0.00,WeatherDisplay:10.37,2013-05-28 14:17:00,
2013-05-28 08:22:00,58.6,43.4,29.89,SW,217,1.1,0.0,57,0.00,-RA,OVC,0.00,WeatherDisplay:10.37,2013-05-28 14:22:00,
2013-05-28 08:27:00,58.9,42.8,29.89,SW,216,2.3,2.3,55,0.00,-RA,OVC,0.00,WeatherDisplay:10.37,2013-05-28 14:27:00,
2013-05-28 08:32:00,59.1,42.9,29.89,SW,216,2.3,2.3,55,0.00,-RA,OVC,0.00,WeatherDisplay:10.37,2013-05-28 14:32:00,
2013-05-28 08:37:00,59.1,43.4,29.89,SSW,202,3.5,3.5,56,0.00,-RA,OVC,0.00,WeatherDisplay:10.37,2013-05-28 14:37:00,
2013-05-28 08:42:00,59.5,43.3,29.89,SSW,202,3.5,3.5,55,0.00,-RA,OVC,0.00,WeatherDisplay:10.37,2013-05-28 14:42:00,
2013-05-28 08:47:00,59.8,43.6,29.88,SSW,201,1.1,0.0,55,0.00,-RA,OVC,0.00,WeatherDisplay:10.37,2013-05-28 14:47:00,
2013-05-28 08:52:00,59.9,43.7,29.88,SSW,199,3.5,3.5,55,0.00,-RA,OVC,0.00,WeatherDisplay:10.37,2013-05-28 14:52:00,
2013-05-28 08:57:00,59.9,43.7,29.88,SSW,211,3.5,3.5,55,0.00,-RA,OVC,0.00,WeatherDisplay:10.37,2013-05-28 14:57:00,
2013-05-28 09:02:00,59.9,43.2,29.88,SSW,207,1.1,0.0,54,0.00,-RA,OVC,0.00,WeatherDisplay:10.37,2013-05-28 15:02:00,
2013-05-28 09:07:00,60.2,43.5,29.88,SSW,210,1.1,1.1,54,0.00,-RA,OVC,0.00,WeatherDisplay:10.37,2013-05-28 15:07:00,
2013-05-28 09:12:00,60.5,43.8,29.88,SSW,209,2.3,2.3,54,0.00,-RA,OVC,0.00,WeatherDisplay:10.37,2013-05-28 15:12:00,
2013-05-28 09:17:00,60.4,43.2,29.88,SSW,202,0.0,0.0,53,0.00,-RA,OVC,0.00,WeatherDisplay:10.37,2013-05-28 15:17:00,
2013-05-28 09:22:00,60.7,43.5,29.88,SW,214,4.6,4.6,53,0.00,-RA,OVC,0.00,WeatherDisplay:10.37,2013-05-28 15:22:00,
2013-05-28 09:27:00,60.9,43.6,29.88,SW,214,3.0,3.0,53,0.00,-RA,OVC,0.00,WeatherDisplay:10.37,2013-05-28 15:27:00,
2013-05-28 09:32:00,61.3,43.5,29.88,SW,214,2.3,2.3,52,0.00,-RA,OVC,0.00,WeatherDisplay:10.37,2013-05-28 15:32:00,
2013-05-28 09:37:00,61.8,44.5,29.88,SW,214,1.1,0.0,53,0.00,-RA,OVC,0.00,WeatherDisplay:10.37,2013-05-28 15:37:00,
2013-05-28 09:42:00,62.2,44.3,29.88,SW,216,2.3,2.3,52,0.00,-RA,OVC,0.00,WeatherDisplay:10.37,2013-05-28 15:42:00,
2013-05-28 09:47:00,62.7,44.8,29.88,WSW,257,2.3,2.3,52,0.00,-RA,OVC,0.00,WeatherDisplay:10.37,2013-05-28 15:47:00,
2013-05-28 09:52:00,63.2,44.2,29.88,West,263,3.5,3.5,50,0.00,-RA,OVC,0.00,WeatherDisplay:10.37,2013-05-28 15:52:00,
2013-05-28 09:57:00,63.3,43.8,29.87,West,267,2.3,2.3,49,0.00,-RA,OVC,0.00,WeatherDisplay:10.37,2013-05-28 15:57:00,
2013-05-28 10:02:00,63.2,44.2,29.87,NNE,12,3.0,3.0,50,0.00,-RA,OVC,0.00,WeatherDisplay:10.37,2013-05-28 16:02:00,
2013-05-28 10:07:00,63.5,44.0,29.87,North,351,3.5,3.5,49,0.00,-RA,OVC,0.00,WeatherDisplay:10.37,2013-05-28 16:07:00,
2013-05-28 10:12:00,63.8,44.3,29.87,NNW,328,4.6,4.6,49,0.00,-RA,OVC,0.00,WeatherDisplay:10.37,2013-05-28 16:12:00,
2013-05-28 10:17:00,64.0,43.4,29.87,NW,316,5.8,5.8,47,0.00,-RA,OVC,0.00,WeatherDisplay:10.37,2013-05-28 16:17:00,
2013-05-28 10:22:00,64.0,44.4,29.87,NNE,19,6.9,6.9,49,0.00,-RA,OVC,0.00,WeatherDisplay:10.37,2013-05-28 16:22:00,
2013-05-28 10:27:00,63.8,44.8,29.85,NE,37,6.9,6.9,50,0.00,-RA,OVC,0.00,WeatherDisplay:10.37,2013-05-28 16:27:00,
2013-05-28 10:32:00,63.6,44.1,29.85,NE,44,6.9,6.9,49,0.00,-RA,OVC,0.00,WeatherDisplay:10.37,2013-05-28 16:32:00,
2013-05-28 10:37:00,63.9,44.9,29.85,NNE,30,5.8,5.8,50,0.00,-RA,OVC,0.00,WeatherDisplay:10.37,2013-05-28 16:37:00,
2013-05-28 10:42:00,64.1,44.5,29.85,NNE,16,5.8,5.8,49,0.00,-RA,OVC,0.00,WeatherDisplay:10.37,2013-05-28 16:42:00,
2013-05-28 10:47:00,64.6,44.5,29.85,NNE,17,4.6,4.6,48,0.00,-RA,OVC,0.00,WeatherDisplay:10.37,2013-05-28 16:47:00,
2013-05-28 10:52:00,65.0,43.7,29.85,NNE,15,4.6,4.6,46,0.00,-RA,OVC,0.00,WeatherDisplay:10.37,2013-05-28 16:52:00,
2013-05-28 10:57:00,64.8,42.9,29.85,NNW,342,5.8,5.8,45,0.00,-RA,OVC,0.00,WeatherDisplay:10.37,2013-05-28 16:57:00,
2013-05-28 11:02:00,65.0,43.1,29.85,NNW,330,3.5,3.5,45,0.00,-RA,OVC,0.00,WeatherDisplay:10.37,2013-05-28 17:02:00,
2013-05-28 11:07:00,65.3,44.5,29.85,NW,319,2.3,2.3,47,0.00,-RA,OVC,0.00,WeatherDisplay:10.37,2013-05-28 17:07:00,
2013-05-28 11:12:00,65.7,43.8,29.85,West,278,3.5,3.5,45,0.00,-RA,OVC,0.00,WeatherDisplay:10.37,2013-05-28 17:12:00,
2013-05-28 11:17:00,66.3,44.3,29.85,NE,36,3.5,3.5,45,0.00,-RA,OVC,0.00,WeatherDisplay:10.37,2013-05-28 17:17:00,
2013-05-28 11:22:00,66.8,44.8,29.85,NNE,32,1.1,1.1,45,0.00,-RA,OVC,0.00,WeatherDisplay:10.37,2013-05-28 17:22:00,
2013-05-28 11:27:00,66.7,44.7,29.85,ENE,59,4.6,4.6,45,0.00,-RA,OVC,0.00,WeatherDisplay:10.37,2013-05-28 17:27:00,
2013-05-28 11:32:00,66.8,44.8,29.85,North,5,4.6,4.6,45,0.00,-RA,OVC,0.00,WeatherDisplay:10.37,2013-05-28 17:32:00,
2013-05-28 11:37:00,67.1,44.4,29.85,NNE,13,2.3,2.3,44,0.00,-RA,OVC,0.00,WeatherDisplay:10.37,2013-05-28 17:37:00,
2013-05-28 11:42:00,67.5,44.2,29.85,North,10,3.5,3.5,43,0.00,-RA,OVC,0.00,WeatherDisplay:10.37,2013-05-28 17:42:00,
2013-05-28 11:47:00,67.8,44.5,29.85,NW,316,5.0,5.0,43,0.00,-RA,OVC,0.00,WeatherDisplay:10.37,2013-05-28 17:47:00,
2013-05-28 11:52:00,68.0,44.7,29.85,NNW,332,3.5,3.5,43,0.00,-RA,OVC,0.00,WeatherDisplay:10.37,2013-05-28 17:52:00,
2013-05-28 11:57:00,68.2,44.8,29.85,NNW,336,1.1,1.1,43,0.00,-RA,OVC,0.00,WeatherDisplay:10.37,2013-05-28 17:57:00,
2013-05-28 12:02:00,68.3,45.5,29.85,NE,44,1.1,1.1,44,0.00,-RA,OVC,0.00,WeatherDisplay:10.37,2013-05-28 18:02:00,
2013-05-28 12:07:00,68.6,44.6,29.85,NNE,22,2.3,2.3,42,0.00,-RA,OVC,0.00,WeatherDisplay:10.37,2013-05-28 18:07:00,
2013-05-28 12:12:00,68.9,44.9,29.85,NNE,22,1.1,1.1,42,0.00,-RA,OVC,0.00,WeatherDisplay:10.37,2013-05-28 18:12:00,
2013-05-28 12:17:00,69.3,46.4,29.85,NNE,22,1.1,1.1,44,0.00,-RA,OVC,0.00,WeatherDisplay:10.37,2013-05-28 18:17:00,
2013-05-28 12:22:00,70.1,45.3,29.85,NNE,22,3.5,3.5,41,0.00,-RA,OVC,0.00,WeatherDisplay:10.37,2013-05-28 18:22:00,
2013-05-28 12:27:00,70.3,45.5,29.85,North,9,1.1,1.1,41,0.00,-RA,OVC,0.00,WeatherDisplay:10.37,2013-05-28 18:27:00,
2013-05-28 12:32:00,70.8,46.6,29.85,North,9,3.5,3.5,42,0.00,-RA,OVC,0.00,WeatherDisplay:10.37,2013-05-28 18:32:00,
2013-05-28 12:37:00,71.2,46.9,29.85,North,351,3.5,3.5,42,0.00,-RA,OVC,0.00,WeatherDisplay:10.37,2013-05-28 18:37:00,
2013-05-28 12:42:00,71.7,46.1,29.85,NNW,331,3.5,3.5,40,0.00,-RA,OVC,0.00,WeatherDisplay:10.37,2013-05-28 18:42:00,
2013-05-28 12:47:00,72.3,47.3,29.85,NNW,331,2.3,2.3,41,0.00,-RA,OVC,0.00,WeatherDisplay:10.37,2013-05-28 18:47:00,
2013-05-28 12:52:00,72.8,46.4,29.85,NNW,331,1.1,1.1,39,0.00,-RA,OVC,0.00,WeatherDisplay:10.37,2013-05-28 18:52:00,
2013-05-28 12:57:00,73.6,47.8,29.85,WSW,244,3.5,3.5,40,0.00,-RA,OVC,0.00,WeatherDisplay:10.37,2013-05-28 18:57:00,
2013-05-28 13:02:00,74.5,47.9,29.85,WSW,250,3.5,3.5,39,0.00,-RA,OVC,0.00,WeatherDisplay:10.37,2013-05-28 19:02:00,
2013-05-28 13:07:00,75.4,47.3,29.77,WSW,250,1.1,0.0,37,0.00,-RA,OVC,0.00,WeatherDisplay:10.37,2013-05-28 19:07:00,
2013-05-28 13:12:00,76.5,48.3,29.77,West,264,5.8,5.8,37,0.00,-RA,OVC,0.00,WeatherDisplay:10.37,2013-05-28 19:12:00,
2013-05-28 13:17:00,76.9,47.9,29.77,West,267,3.5,3.5,36,0.00,-RA,OVC,0.00,WeatherDisplay:10.37,2013-05-28 19:17:00,
2013-05-28 13:22:00,77.5,47.7,29.77,SW,232,5.8,5.8,35,0.00,-RA,OVC,0.00,WeatherDisplay:10.37,2013-05-28 19:22:00,
2013-05-28 13:27:00,77.6,47.8,29.77,North,11,3.5,3.5,35,0.00,-RA,OVC,0.00,WeatherDisplay:10.37,2013-05-28 19:27:00,
2013-05-28 13:32:00,77.8,47.2,29.77,West,267,9.2,9.2,34,0.00,-RA,OVC,0.00,WeatherDisplay:10.37,2013-05-28 19:32:00,
2013-05-28 13:37:00,77.9,47.3,29.77,West,279,4.6,4.6,34,0.00,-RA,OVC,0.00,WeatherDisplay:10.37,2013-05-28 19:37:00,
2013-05-28 13:42:00,78.0,44.0,29.77,NW,315,4.6,4.6,30,0.00,-RA,OVC,0.00,WeatherDisplay:10.37,2013-05-28 19:42:00,
2013-05-28 13:47:00,78.2,45.9,29.77,North,5,4.6,4.6,32,0.00,-RA,OVC,0.00,WeatherDisplay:10.37,2013-05-28 19:47:00,
2013-05-28 13:52:00,78.7,42.8,29.77,NW,313,3.5,3.5,28,0.00,-RA,OVC,0.00,WeatherDisplay:10.37,2013-05-28 19:52:00,
2013-05-28 13:57:00,79.3,43.4,29.77,NE,55,6.9,6.9,28,0.00,-RA,OVC,0.00,WeatherDisplay:10.37,2013-05-28 19:57:00,
2013-05-28 14:02:00,79.6,43.6,29.77,West,277,4.6,4.6,28,0.00,-RA,OVC,0.00,WeatherDisplay:10.37,2013-05-28 20:02:00,
2013-05-28 14:07:00,79.8,42.8,29.77,NW,307,3.5,3.5,27,0.00,-RA,OVC,0.00,WeatherDisplay:10.37,2013-05-28 20:07:00,
2013-05-28 14:12:00,80.0,44.0,29.77,West,279,3.5,3.5,28,0.00,-RA,OVC,0.00,WeatherDisplay:10.37,2013-05-28 20:12:00,
2013-05-28 14:17:00,79.8,42.8,29.77,West,271,3.5,3.5,27,0.00,-RA,OVC,0.00,WeatherDisplay:10.37,2013-05-28 20:17:00,
2013-05-28 14:22:00,79.4,41.5,29.77,West,275,2.3,2.3,26,0.00,-RA,OVC,0.00,WeatherDisplay:10.37,2013-05-28 20:22:00,
2013-05-28 14:27:00,79.5,42.6,29.77,West,265,5.8,5.8,27,0.00,-RA,OVC,0.00,WeatherDisplay:10.37,2013-05-28 20:27:00,
2013-05-28 14:32:00,79.6,40.7,29.77,NNW,329,5.8,5.8,25,0.00,-RA,OVC,0.00,WeatherDisplay:10.37,2013-05-28 20:32:00,
2013-05-28 14:37:00,79.3,40.4,29.77,NE,55,4.6,4.6,25,0.00,-RA,OVC,0.00,WeatherDisplay:10.37,2013-05-28 20:37:00,
2013-05-28 14:42:00,79.4,42.5,29.77,NE,55,2.3,2.3,27,0.00,-RA,OVC,0.00,WeatherDisplay:10.37,2013-05-28 20:42:00,
2013-05-28 14:47:00,80.1,42.1,29.77,NE,55,2.3,2.3,26,0.00,-RA,OVC,0.00,WeatherDisplay:10.37,2013-05-28 20:47:00,
2013-05-28 14:52:00,81.0,39.7,29.77,ESE,107,6.9,6.9,23,0.00,-RA,OVC,0.00,WeatherDisplay:10.37,2013-05-28 20:52:00,
2013-05-28 14:57:00,81.5,40.1,29.77,North,360,6.9,6.9,23,0.00,-RA,OVC,0.00,WeatherDisplay:10.37,2013-05-28 20:57:00,
2013-05-28 15:02:00,81.6,37.9,29.77,NNW,348,9.2,9.2,21,0.00,-RA,OVC,0.00,WeatherDisplay:10.37,2013-05-28 21:02:00,
2013-05-28 15:07:00,81.4,35.2,29.77,WNW,296,10.4,10.4,19,0.00,-RA,OVC,0.00,WeatherDisplay:10.37,2013-05-28 21:07:00,
2013-05-28 15:12:00,81.2,33.6,29.77,NNW,332,3.5,3.5,18,0.00,-RA,OVC,0.00,WeatherDisplay:10.37,2013-05-28 21:12:00,
2013-05-28 15:17:00,81.3,36.4,29.77,NE,47,6.9,6.9,20,0.00,-RA,OVC,0.00,WeatherDisplay:10.37,2013-05-28 21:17:00,
2013-05-28 15:22:00,81.0,32.1,29.77,East,84,3.5,3.5,17,0.00,-RA,OVC,0.00,WeatherDisplay:10.37,2013-05-28 21:22:00,
2013-05-28 15:27:00,81.0,29.0,29.77,East,95,4.6,4.6,15,0.00,-RA,OVC,0.00,WeatherDisplay:10.37,2013-05-28 21:27:00,
2013-05-28 15:32:00,80.9,27.2,29.77,ESE,103,3.5,3.5,14,0.00,-RA,OVC,0.00,WeatherDisplay:10.37,2013-05-28 21:32:00,
2013-05-28 15:37:00,80.8,28.8,29.77,ESE,102,3.5,3.5,15,0.00,-RA,OVC,0.00,WeatherDisplay:10.37,2013-05-28 21:37:00,
2013-05-28 15:42:00,80.6,28.7,29.77,NE,35,1.1,1.1,15,0.00,-RA,OVC,0.00,WeatherDisplay:10.37,2013-05-28 21:42:00,
2013-05-28 15:47:00,80.7,37.1,29.77,NW,312,9.2,9.2,21,0.00,-RA,OVC,0.00,WeatherDisplay:10.37,2013-05-28 21:47:00,
2013-05-28 15:52:00,80.0,37.7,29.77,NE,44,12.7,12.7,22,0.00,-RA,OVC,0.00,WeatherDisplay:10.37,2013-05-28 21:52:00,
2013-05-28 15:57:00,79.6,38.5,29.77,North,350,9.2,9.2,23,0.00,-RA,OVC,0.00,WeatherDisplay:10.37,2013-05-28 21:57:00,
2013-05-28 16:02:00,79.3,37.1,29.77,NNE,27,11.5,11.5,22,0.00,-RA,OVC,0.00,WeatherDisplay:10.37,2013-05-28 22:02:00,
2013-05-28 16:07:00,79.1,35.8,29.77,NW,319,13.8,13.8,21,0.00,-RA,OVC,0.00,WeatherDisplay:10.37,2013-05-28 22:07:00,
2013-05-28 16:12:00,78.9,34.4,29.77,North,5,3.5,3.5,20,0.00,-RA,OVC,0.00,WeatherDisplay:10.37,2013-05-28 22:12:00,
2013-05-28 16:17:00,78.8,35.5,29.77,NW,323,5.0,5.0,21,0.00,-RA,OVC,0.00,WeatherDisplay:10.37,2013-05-28 22:17:00,
2013-05-28 16:22:00,78.8,35.5,29.77,WNW,302,10.4,10.4,21,0.00,-RA,OVC,0.00,WeatherDisplay:10.37,2013-05-28 22:22:00,
2013-05-28 16:27:00,78.8,35.5,29.77,NNW,337,2.3,2.3,21,0.00,-RA,OVC,0.00,WeatherDisplay:10.37,2013-05-28 22:27:00,
2013-05-28 16:32:00,78.8,34.3,29.77,NW,322,11.5,11.5,20,0.00,-RA,OVC,0.00,WeatherDisplay:10.37,2013-05-28 22:32:00,
2013-05-28 16:37:00,78.7,34.2,29.77,North,355,10.4,10.4,20,0.00,-RA,OVC,0.00,WeatherDisplay:10.37,2013-05-28 22:37:00,
2013-05-28 16:42:00,78.5,32.8,29.77,North,5,4.6,4.6,19,0.00,-RA,OVC,0.00,WeatherDisplay:10.37,2013-05-28 22:42:00,
2013-05-28 16:47:00,78.4,32.7,29.77,North,9,10.4,10.4,19,0.00,-RA,OVC,0.00,WeatherDisplay:10.37,2013-05-28 22:47:00,
2013-05-28 16:52:00,78.4,32.7,29.77,NNW,342,4.6,4.6,19,0.00,-RA,OVC,0.00,WeatherDisplay:10.37,2013-05-28 22:52:00,
2013-05-28 16:57:00,78.4,31.4,29.77,NNW,344,4.6,4.6,18,0.00,-RA,OVC,0.00,WeatherDisplay:10.37,2013-05-28 22:57:00,
2013-05-28 17:02:00,78.4,31.4,29.77,NNE,21,5.8,5.8,18,0.00,-RA,OVC,0.00,WeatherDisplay:10.37,2013-05-28 23:02:00,
2013-05-28 17:07:00,78.5,32.8,29.77,NNE,15,2.3,2.3,19,0.00,-RA,OVC,0.00,WeatherDisplay:10.37,2013-05-28 23:07:00,
2013-05-28 17:12:00,78.6,28.6,29.77,North,10,3.5,3.5,16,0.00,-RA,OVC,0.00,WeatherDisplay:10.37,2013-05-28 23:12:00,
2013-05-28 17:17:00,78.7,31.6,29.77,North,10,1.1,1.1,18,0.00,-RA,OVC,0.00,WeatherDisplay:10.37,2013-05-28 23:17:00,
2013-05-28 17:22:00,78.8,30.3,29.77,North,10,1.1,0.0,17,0.00,-RA,OVC,0.00,WeatherDisplay:10.37,2013-05-28 23:22:00,
2013-05-28 17:27:00,78.6,38.8,29.77,SSW,202,3.5,3.5,24,0.00,-RA,OVC,0.00,WeatherDisplay:10.37,2013-05-28 23:27:00,
2013-05-28 17:32:00,78.0,43.2,29.77,SSW,203,2.3,2.3,29,0.00,-RA,OVC,0.00,WeatherDisplay:10.37,2013-05-28 23:32:00,
2013-05-28 17:37:00,77.4,42.6,29.77,SSW,202,1.1,1.1,29,0.00,-RA,OVC,0.00,WeatherDisplay:10.37,2013-05-28 23:37:00,
2013-05-28 17:42:00,76.5,42.7,29.77,SE,143,3.5,3.5,30,0.00,-RA,OVC,0.00,WeatherDisplay:10.37,2013-05-28 23:42:00,
2013-05-28 17:47:00,75.8,42.1,29.77,ESE,121,6.9,6.9,30,0.00,-RA,OVC,0.00,WeatherDisplay:10.37,2013-05-28 23:47:00,
2013-05-28 17:52:00,75.4,42.7,29.77,SE,133,1.1,1.1,31,0.00,-RA,OVC,0.00,WeatherDisplay:10.37,2013-05-28 23:52:00,
2013-05-28 17:57:00,75.2,42.5,29.77,SE,133,0.0,0.0,31,0.00,-RA,OVC,0.00,WeatherDisplay:10.37,2013-05-28 23:57:00,
2013-05-28 18:02:00,74.9,43.0,29.77,SE,133,1.1,1.1,32,0.00,-RA,OVC,0.00,WeatherDisplay:10.37,2013-05-29 00:02:00,
2013-05-28 18:07:00,74.6,36.4,29.77,SE,126,5.0,5.0,25,0.00,-RA,OVC,0.00,WeatherDisplay:10.37,2013-05-29 00:07:00,
2013-05-28 18:12:00,75.7,26.3,29.77,South,175,10.4,10.4,16,0.00,-RA,OVC,0.00,WeatherDisplay:10.37,2013-05-29 00:12:00,
2013-05-28 18:17:00,76.4,28.3,29.77,SSE,163,9.2,9.2,17,0.00,-RA,OVC,0.00,WeatherDisplay:10.37,2013-05-29 00:17:00,
2013-05-28 18:22:00,76.7,27.1,29.77,ESE,123,6.9,6.9,16,0.00,-RA,OVC,0.00,WeatherDisplay:10.37,2013-05-29 00:22:00,
2013-05-28 18:27:00,76.8,28.7,29.77,ESE,113,6.9,6.9,17,0.00,-RA,OVC,0.00,WeatherDisplay:10.37,2013-05-29 00:27:00,
2013-05-28 18:32:00,76.8,30.1,29.77,ESE,115,3.5,3.5,18,0.00,-RA,OVC,0.00,WeatherDisplay:10.37,2013-05-29 00:32:00,
2013-05-28 18:37:00,76.6,36.0,29.77,South,178,3.5,3.5,23,0.00,-RA,OVC,0.00,WeatherDisplay:10.37,2013-05-29 00:37:00,
2013-05-28 18:42:00,76.3,34.6,29.77,South,180,2.3,2.3,22,0.00,-RA,OVC,0.00,WeatherDisplay:10.37,2013-05-29 00:42:00,
2013-05-28 18:47:00,76.1,34.5,29.77,South,180,0.0,0.0,22,0.00,-RA,OVC,0.00,WeatherDisplay:10.37,2013-05-29 00:47:00,
2013-05-28 18:52:00,75.9,35.4,29.77,South,180,0.0,0.0,23,0.00,-RA,OVC,0.00,WeatherDisplay:10.37,2013-05-29 00:52:00,
2013-05-28 18:57:00,75.6,36.2,29.77,South,180,0.0,0.0,24,0.00,-RA,OVC,0.00,WeatherDisplay:10.37,2013-05-29 00:57:00,
2013-05-28 19:02:00,75.4,36.1,29.77,South,180,0.0,0.0,24,0.00,-RA,OVC,0.00,WeatherDisplay:10.37,2013-05-29 01:02:00,
2013-05-28 19:07:00,75.2,36.9,29.77,South,180,0.0,0.0,25,0.00,-RA,OVC,0.00,WeatherDisplay:10.37,2013-05-29 01:07:00,
2013-05-28 19:12:00,74.9,37.7,29.77,South,180,0.0,0.0,26,0.00,-RA,OVC,0.00,WeatherDisplay:10.37,2013-05-29 01:12:00,
2013-05-28 19:17:00,74.5,38.3,29.77,South,180,0.0,0.0,27,0.00,-RA,OVC,0.00,WeatherDisplay:10.37,2013-05-29 01:17:00,
2013-05-28 19:22:00,74.1,37.0,29.77,South,180,0.0,0.0,26,0.00,-RA,OVC,0.00,WeatherDisplay:10.37,2013-05-29 01:22:00,
2013-05-28 19:27:00,73.5,38.4,29.77,South,180,1.1,1.1,28,0.00,-RA,OVC,0.00,WeatherDisplay:10.37,2013-05-29 01:27:00,
2013-05-28 19:32:00,73.1,38.0,29.77,South,176,3.5,3.5,28,0.00,-RA,OVC,0.00,WeatherDisplay:10.37,2013-05-29 01:32:00,
2013-05-28 19:37:00,73.3,28.5,29.77,SE,135,11.5,11.5,19,0.00,-RA,OVC,0.00,WeatherDisplay:10.37,2013-05-29 01:37:00,
2013-05-28 19:42:00,74.1,27.9,29.77,SE,125,11.5,11.5,18,0.00,-RA,OVC,0.00,WeatherDisplay:10.37,2013-05-29 01:42:00,
2013-05-28 19:47:00,74.4,26.7,29.77,East,95,10.4,10.4,17,0.00,-RA,OVC,0.00,WeatherDisplay:10.37,2013-05-29 01:47:00,
2013-05-28 19:52:00,74.6,26.9,29.77,NE,48,4.6,4.6,17,0.00,-RA,OVC,0.00,WeatherDisplay:10.37,2013-05-29 01:52:00,
2013-05-28 19:57:00,74.8,25.6,29.77,NE,54,3.5,3.5,16,0.00,-RA,OVC,0.00,WeatherDisplay:10.37,2013-05-29 01:57:00,
2013-05-28 20:02:00,75.1,25.8,29.77,NE,41,1.1,1.1,16,0.00,-RA,OVC,0.00,WeatherDisplay:10.37,2013-05-29 02:02:00,
2013-05-28 20:07:00,74.9,27.1,29.77,NE,41,2.3,2.3,17,0.00,-RA,OVC,0.00,WeatherDisplay:10.37,2013-05-29 02:07:00,
2013-05-28 20:12:00,74.7,27.0,29.77,NE,41,0.0,0.0,17,0.00,-RA,OVC,0.00,WeatherDisplay:10.37,2013-05-29 02:12:00,
2013-05-28 20:17:00,74.2,27.9,29.77,NE,41,0.0,0.0,18,0.00,-RA,OVC,0.00,WeatherDisplay:10.37,2013-05-29 02:17:00,
2013-05-28 20:22:00,73.8,28.9,29.77,NE,41,0.0,0.0,19,0.00,-RA,OVC,0.00,WeatherDisplay:10.37,2013-05-29 02:22:00,
2013-05-28 20:27:00,73.1,28.4,29.77,NE,41,0.0,0.0,19,0.00,-RA,OVC,0.00,WeatherDisplay:10.37,2013-05-29 02:27:00,
2013-05-28 20:32:00,72.4,29.0,29.77,NE,41,0.0,0.0,20,0.00,-RA,OVC,0.00,WeatherDisplay:10.37,2013-05-29 02:32:00,
2013-05-28 20:37:00,71.5,31.7,29.77,NE,41,1.1,0.0,23,0.00,-RA,OVC,0.00,WeatherDisplay:10.37,2013-05-29 02:37:00,
2013-05-28 20:42:00,70.4,29.7,29.77,NE,41,0.0,0.0,22,0.00,-RA,OVC,0.00,WeatherDisplay:10.37,2013-05-29 02:42:00,
2013-05-28 20:47:00,69.5,32.1,29.77,NE,41,2.0,2.0,25,0.00,-RA,OVC,0.00,WeatherDisplay:10.37,2013-05-29 02:47:00,
2013-05-28 20:52:00,68.7,33.3,29.77,NE,41,0.0,0.0,27,0.00,-RA,OVC,0.00,WeatherDisplay:10.37,2013-05-29 02:52:00,
2013-05-28 20:57:00,68.1,32.8,29.77,NE,41,0.0,0.0,27,0.00,-RA,OVC,0.00,WeatherDisplay:10.37,2013-05-29 02:57:00,
2013-05-28 21:02:00,67.4,34.0,29.77,NE,41,0.0,0.0,29,0.00,-RA,OVC,0.00,WeatherDisplay:10.37,2013-05-29 03:02:00,
2013-05-28 21:07:00,66.8,34.3,29.77,NE,41,3.5,3.5,30,0.00,-RA,OVC,0.00,WeatherDisplay:10.37,2013-05-29 03:07:00,
2013-05-28 21:12:00,66.1,32.0,29.77,NE,41,0.0,0.0,28,0.00,-RA,OVC,0.00,WeatherDisplay:10.37,2013-05-29 03:12:00,
2013-05-28 21:17:00,65.9,31.8,29.77,NE,41,0.0,0.0,28,0.00,-RA,OVC,0.00,WeatherDisplay:10.37,2013-05-29 03:17:00,
2013-05-28 21:22:00,66.0,31.0,29.77,NE,41,0.0,0.0,27,0.00,-RA,OVC,0.00,WeatherDisplay:10.37,2013-05-29 03:22:00,
2013-05-28 21:27:00,66.1,31.1,29.77,NE,41,1.1,1.1,27,0.00,-RA,OVC,0.00,WeatherDisplay:10.37,2013-05-29 03:27:00,
2013-05-28 21:32:00,66.3,29.4,29.77,NE,41,0.0,0.0,25,0.00,-RA,OVC,0.00,WeatherDisplay:10.37,2013-05-29 03:32:00,
2013-05-28 21:37:00,66.7,30.7,29.77,NE,41,0.0,0.0,26,0.00,-RA,OVC,0.00,WeatherDisplay:10.37,2013-05-29 03:37:00,
2013-05-28 21:42:00,67.0,31.0,29.77,South,189,3.5,3.5,26,0.00,-RA,OVC,0.00,WeatherDisplay:10.37,2013-05-29 03:42:00,
2013-05-28 21:47:00,67.3,30.2,29.77,South,190,2.3,2.3,25,0.00,-RA,OVC,0.00,WeatherDisplay:10.37,2013-05-29 03:47:00,
2013-05-28 21:52:00,67.5,30.4,29.77,South,173,1.1,1.1,25,0.00,-RA,OVC,0.00,WeatherDisplay:10.37,2013-05-29 03:52:00,
2013-05-28 21:57:00,67.7,30.6,29.77,South,171,4.6,4.6,25,0.00,-RA,OVC,0.00,WeatherDisplay:10.37,2013-05-29 03:57:00,
2013-05-28 22:01:00,67.9,31.7,29.77,South,174,3.5,0.0,26,0.00,-RA,OVC,0.00,WeatherDisplay:10.37,2013-05-29 04:01:00,
2013-05-28 22:06:00,68.1,31.9,29.77,South,176,2.3,2.3,26,0.00,-RA,OVC,0.00,WeatherDisplay:10.37,2013-05-29 04:06:00,
2013-05-28 22:11:00,68.1,31.9,29.77,SSE,161,3.5,3.5,26,0.00,-RA,OVC,0.00,WeatherDisplay:10.37,2013-05-29 04:11:00,
2013-05-28 22:16:00,68.1,31.9,29.77,SE,146,2.3,2.3,26,0.00,-RA,OVC,0.00,WeatherDisplay:10.37,2013-05-29 04:16:00,
2013-05-28 22:21:00,68.2,32.0,29.77,SSE,150,1.1,1.1,26,0.00,-RA,OVC,0.00,WeatherDisplay:10.37,2013-05-29 04:21:00,
2013-05-28 22:26:00,68.2,32.0,29.77,SSE,148,2.3,2.3,26,0.00,-RA,OVC,0.00,WeatherDisplay:10.37,2013-05-29 04:26:00,
2013-05-28 22:31:00,68.4,32.1,29.77,SE,130,1.1,0.0,26,0.00,-RA,OVC,0.00,WeatherDisplay:10.37,2013-05-29 04:31:00,
2013-05-28 22:36:00,68.3,32.1,29.77,SE,131,2.3,2.3,26,0.00,-RA,OVC,0.00,WeatherDisplay:10.37,2013-05-29 04:36:00,
2013-05-28 22:41:00,68.3,32.1,29.77,SE,142,1.1,1.1,26,0.00,-RA,OVC,0.00,WeatherDisplay:10.37,2013-05-29 04:41:00,
2013-05-28 22:46:00,68.2,32.0,29.77,SSE,153,1.1,1.1,26,0.00,-RA,OVC,0.00,WeatherDisplay:10.37,2013-05-29 04:46:00,
2013-05-28 22:51:00,68.0,32.7,29.77,SSE,155,2.0,2.0,27,0.00,-RA,OVC,0.00,WeatherDisplay:10.37,2013-05-29 04:51:00,
2013-05-28 22:56:00,67.8,32.6,29.77,SSE,155,0.0,0.0,27,0.00,-RA,OVC,0.00,WeatherDisplay:10.37,2013-05-29 04:56:00,
2013-05-28 23:01:00,67.5,32.3,29.77,SSE,155,0.0,0.0,27,0.00,-RA,OVC,0.00,WeatherDisplay:10.37,2013-05-29 05:01:00,
2013-05-28 23:06:00,67.2,33.0,29.77,SSE,155,2.3,0.0,28,0.00,-RA,OVC,0.00,WeatherDisplay:10.37,2013-05-29 05:06:00,
2013-05-28 23:11:00,66.9,32.7,29.77,SSE,155,0.0,0.1,28,0.00,-RA,OVC,0.00,WeatherDisplay:10.37,2013-05-29 05:11:00,
2013-05-28 23:16:00,66.6,33.3,29.70,SSE,155,1.1,1.1,29,0.00,-RA,OVC,0.00,WeatherDisplay:10.37,2013-05-29 05:16:00,
2013-05-28 23:21:00,66.2,33.8,29.70,SSE,155,2.3,2.3,30,0.00,-RA,OVC,0.00,WeatherDisplay:10.37,2013-05-29 05:21:00,
2013-05-28 23:26:00,65.9,33.6,29.70,SSE,147,2.3,2.3,30,0.00,-RA,OVC,0.00,WeatherDisplay:10.37,2013-05-29 05:26:00,
2013-05-28 23:31:00,65.6,34.9,29.70,South,186,3.5,3.5,32,0.00,-RA,OVC,0.00,WeatherDisplay:10.37,2013-05-29 05:31:00,
2013-05-28 23:36:00,65.4,34.8,29.70,South,177,10.4,10.4,32,0.00,-RA,OVC,0.00,WeatherDisplay:10.37,2013-05-29 05:36:00,
2013-05-28 23:41:00,65.4,35.5,29.70,South,180,7.0,7.0,33,0.00,-RA,OVC,0.00,WeatherDisplay:10.37,2013-05-29 05:41:00,
2013-05-28 23:46:00,65.2,36.1,29.70,SSE,158,5.8,5.8,34,0.00,-RA,OVC,0.00,WeatherDisplay:10.37,2013-05-29 05:46:00,
2013-05-28 23:51:00,64.9,36.6,29.70,ESE,115,3.5,3.5,35,0.00,-RA,OVC,0.00,WeatherDisplay:10.37,2013-05-29 05:51:00,
2013-05-28 23:56:00,64.7,37.1,29.70,East,94,3.5,3.5,36,0.00,-RA,OVC,0.00,WeatherDisplay:10.37,2013-05-29 05:56:00,